Location: Penton Mewsey
(51.2167°N, 1.5167°W)
Time: 08:41:42
(UTC+00:00)

Cosmos 1656 - Pass Details

Date: 30 March 2020
Orbit: 798 x 849 km, 71.1° (Epoch: 01 June)

Event Time Altitude Azimuth Distance (km) Brightness Sun altitude
Rises 23:04:15 0° 329° (NNW) 3,426 7.9 -32.8°
Reaches altitude 10° 23:06:42 10° 329° (NNW) 2,485 6.9 -32.9°
Enters shadow 23:10:50 49° 323° (NW) 1,083 4.4 -33.1°
